Home   Weather   Bocholt   Past weeks

Flag for Germany Past Weather in Bocholt, North Rhine-Westphalia, Germany — Yesterday and Last 2 Weeks

Now
50 °F

Fog.


Feels Like: 45 °F
Forecast: 45 / 51 °F
Wind: 13 mph from Southwest

Location: Niederrhein

Current Time: Feb 20, 2017 at 7:16:45 pm

Latest Report: Feb 20, 2017 at 6:20 pm


Visibility: 2 mi

Pressure: 29.95 "Hg

Humidity: 94%

Dew Point: 48 °F

Location of BocholtLocation

Past Weather in Bocholt — Graph

°F

Bocholt Temperature Yesterday

Maximum temperature yesterday: 46 °F (at 4:50 pm)
Minimum temperature yesterday: 36 °F (at 4:50 am)
Average temperature yesterday: 42 °F

High & Low Weather Summary for the Past Weeks

 TemperatureHumidityPressure
High59 °F (Feb 15, 3:20 pm)100% (Feb 11, 7:20 am)30.51 "Hg (Feb 11, 7:20 am)
Low28 °F (Feb 9, 11:20 pm)50% (Feb 14, 12:20 pm)29.65 "Hg (Feb 5, 6:20 pm)
Average40 °F82%30.23 "Hg
* Reported Feb 5 6:20 pm — Feb 20 6:20 pm, Bocholt, Weather by CustomWeather, © 2017

Note: Actual official high and low records may vary slightly from our data, if they occured in-between our weather recording intervals... More about our weather records

Advertising

Bocholt Weather History for the Previous 24 Hours

Scroll right to see more
 ConditionsComfort  
Time TempWeatherWind HumidityBarometerVisibility
6:20 pm
Mon, Feb 20
50 °FFog.13 mph94%29.95 "Hg2 mi
5:20 pm50 °FFog.13 mph94%29.95 "Hg2 mi
4:20 pm50 °FDrizzle. Partly sunny.15 mph94%29.95 "Hg4 mi
3:50 pm50 °FDrizzle. Partly sunny.15 mph94%29.95 "Hg5 mi
3:20 pm50 °FPartly sunny.15 mph88%29.98 "Hg6 mi
2:50 pm50 °FPartly sunny.13 mph88%29.98 "HgN/A
2:20 pm50 °FPartly sunny.14 mph88%29.98 "Hg4 mi
1:20 pm50 °FLight rain. Partly sunny.16 mph88%30.01 "Hg5 mi
12:50 pm50 °FLight rain. Partly sunny.14 mph88%30.01 "Hg5 mi
12:20 pm48 °FLight rain. Partly sunny.16 mph87%30.01 "Hg6 mi
11:20 am48 °FLight rain. Partly sunny.14 mph87%30.04 "Hg5 mi
10:20 am46 °FFog.13 mph93%30.04 "Hg2 mi
9:20 am46 °FFog.13 mph93%30.04 "Hg2 mi
8:20 am46 °FDrizzle. Fog.10 mph87%30.07 "Hg2 mi
7:50 am46 °FFog.9 mph87%30.07 "Hg3 mi
7:20 am46 °FFog.10 mph87%30.07 "Hg3 mi
6:50 am45 °FPassing clouds.10 mph93%30.07 "Hg4 mi
6:20 am45 °FFog.10 mph93%30.07 "Hg3 mi
5:50 am45 °FFog.10 mph93%30.07 "Hg2 mi
5:20 am45 °FDrizzle. Fog.8 mph93%30.09 "Hg2 mi
4:50 am45 °FDrizzle. Fog.9 mph93%30.09 "Hg2 mi
11:50 pm
Sun, Feb 19
45 °FFog.7 mph93%30.15 "Hg3 mi
11:20 pm45 °FFog.7 mph87%30.15 "Hg3 mi
10:20 pm45 °FFog.7 mph87%30.15 "Hg3 mi
9:50 pm45 °FFog.6 mph87%30.15 "Hg3 mi
9:20 pm45 °FFog.6 mph87%30.15 "Hg3 mi
8:50 pm45 °FFog.6 mph87%30.15 "Hg3 mi
8:20 pm45 °FFog.6 mph87%30.15 "Hg3 mi
7:50 pm45 °FFog.6 mph87%30.15 "Hg2 mi
7:20 pm43 °FFog.6 mph93%30.15 "Hg3 mi
Weather by CustomWeather, © 2017

See weather overviewHow to use our weather pages